078  
ASUS41 KALY 201310  
RWRALY  
 
NEW YORK STATE HOURLY WEATHER ROUNDUP  
NATIONAL WEATHER SERVICE ALBANY NY  
800 AM EST MON NOV 20 2017  
 
NOTE: "FAIR" INDICATES FEW OR NO CLOUDS BELOW 12,000 FEET WITH NO  
SIGNIFICANT WEATHER AND/OR NO S TO VISIBILITY
.  
 
NYZ032-033-038>043-046>054-057>066-NYZ062>081-082-084-201400-  
EAST  
 
 
CITY SKY/WX TMP DP RH WIND PRES REMARKS
 
ALBANY CLOUDY 30 19 63 W9 29.96R WCI 22  
GLENS FALLS CLOUDY 29 12 49 VRB3 29.90R  
POUGHKEEPSIE MOSUNNY 35 20 54 W8 29.98R WCI 29  
NEWBURGH PTSUNNY 34 21 60 W12 29.98R WCI 25  
MONTGOMERY CLOUDY 35 21 56 W5 29.97R WCI 31  
WHITE PLAINS PTSUNNY 36 21 54 W12G20 29.97R WCI 28  
ISLIP PTSUNNY 39 23 52 W17G23 29.99R WCI 30  
NEW YORK CITY PTSUNNY 38 23 55 W12G21 30.02R WCI 30  

 
 
NYZ005>009-017-018-044>046-055-056-201400-  
CENTRAL  
 
 
CITY SKY/WX TMP DP RH WIND PRES REMARKS
 
FULTON CLOUDY 31 24 75 SW14G24 29.93S WCI 21  
SYRACUSE FLURRIES 29 25 85 SW9 29.95R WCI 20  
ROME FLURRIES 26 21 81 CALM 29.96R  
ELMIRA CLOUDY 34 23 64 W7 29.98R WCI 28  
BINGHAMTON FLURRIES 27 22 81 W9 29.92R WCI 18  
MONTICELLO FLURRIES 30 20 66 W12G23 29.94R WCI 20  

 
 
NYZ026>034-041>043-087-201400-  
NORTH  
 
 
CITY SKY/WX TMP DP RH WIND PRES REMARKS
 
WATERTOWN LGT SNOW 23 20 88 SE5 29.93S FOG WCI 17  
FORT DRUM NOT AVBL  
OGDENSBURG FAIR 23 16 75 SW3 29.92R  
MASSENA CLOUDY 20 13 74 SW8 29.93R WCI 10  
SARANAC LAKE CLOUDY 15 11 83 SW7 29.81R WCI 5  
PLATTSBURGH MOCLDY 23 8 52 VRB7G17 29.89R WCI 15  

 
 
NYZ001>004-010>016-019>021-085-201400-  
WEST  
 
 
CITY SKY/WX TMP DP RH WIND PRES REMARKS
 
NIAGARA FALLS CLOUDY 32 21 64 SW15 29.99R WCI 22  
BUFFALO MOCLDY 32 21 64 W13G23 29.99R WCI 22  
DUNKIRK CLOUDY 36 27 69 W13G26 30.01R WCI 27  
JAMESTOWN FLURRIES 28 25 88 SW16 30.00R WCI 16  
WELLSVILLE CLOUDY 29 22 75 W10G20 29.96R WCI 20  
ROCHESTER CLOUDY 33 22 63 W16 29.97R WCI 23  
PENN YAN MOCLDY 31 18 58 SW10 29.97R WCI 22  

 
 
KEY  
WCI = WIND CHILL INDEX  
VSB = VISIBILITY  
HX = HEAT INDEX  

 
 
 
CLICK HERE TO GO TO PREVIOUS BULLETINS.

The Nexlab NY Page
The Nexlab VT Page
The Nexlab MA Page
The Nexlab CT Page Main Text Page